Torna al catalogo

COSMOS 2318

GLONASS

LostNavigazioneMEO
NORAD 23622·PAYLOAD·🇷🇺 Russia

Lanciato Jul 24, 1995 da Baikonur Cosmodrome

Loading…

Prossimi Passaggi (prossime 24 ore)

TLE

ObsoletoSource: Space-Track

Epoca: Aug 1, 2026, 05:08 UTC

1 23622U 95037C   26213.21455514  .00000080  00000-0  00000+0 0  9997
2 23622  65.4732 201.3814 0014359  62.4849  53.6792  2.13101994241197

Traccia COSMOS 2318 in tempo reale con AllMySat

Download on the App Store